Flag for U.S.A. Weather past 2 weeks in Tampa, Florida, U.S.A.

Now
65 °F

Mostly cloudy.


Feels Like: 65 °F
Forecast: 63 / 72 °F
Wind: 13 mph from Northwest

Location: Tampa International Airport


UV Index: 5 (Moderate)

Visibility: 10 mi


Pressure: 29.96 "Hg

Humidity: 73%

Dew point: 56 °F

Location of TampaLocation

Historic Weather in Tampa

°F

Tampa temperature yesterday

Maximum temperature yesterday: 78 °F (at 1:53 PM)
Minimum temperature yesterday: 68 °F (at 3:00 PM)
Average temperature yesterday: 71 °F

Past Weeks' High & Low Weather Summary

 TemperatureHumidityPressure
High85 °F (Apr 12, 4:53 PM)97% (Apr 19, 1:53 AM)30.30 "Hg (Apr 19, 1:53 AM)
Low51 °F (Apr 16, 6:53 AM)32% (Apr 12, 4:53 PM)29.75 "Hg (Apr 8, 4:53 AM)
Average72 °F71%30.03 "Hg
* Reported Apr 4 5:53 PM — Apr 19 5:53 PM, Tampa, Weather by CustomWeather, © 2014

Note: Actual official high and low records may vary slightly from our data, if they occured in-between our weather recording intervals... More about our weather records

Advertising

Historic Weather Conditions — Data for Previous 24 hours

 ConditionsComfort  
Time TempWeatherWind HumidityBarometerVisibility
5:53 PM
Apr 19
65 °FMostly cloudy.13 mph73%29.96 "Hg10 mi
4:53 PM66 °FMore clouds than sun.15 mph73%29.94 "Hg10 mi
3:53 PM67 °FMore clouds than sun.13 mph71%29.94 "Hg10 mi
2:53 PM69 °FOvercast.13 mph66%29.94 "Hg10 mi
1:53 PM68 °FMore clouds than sun.15 mph68%29.95 "Hg10 mi
12:53 PM67 °FMostly cloudy.14 mph76%29.96 "Hg10 mi
11:53 AM70 °FMostly cloudy.14 mph71%29.96 "Hg10 mi
10:53 AM69 °FScattered clouds.16 mph70%29.96 "Hg10 mi
9:53 AM67 °FMostly cloudy.14 mph81%29.95 "Hg10 mi
8:53 AM67 °FMostly cloudy.13 mph85%29.94 "Hg10 mi
7:53 AM67 °FMostly cloudy.15 mph85%29.93 "Hg10 mi
6:53 AM67 °FPassing clouds.14 mph85%29.92 "Hg10 mi
5:53 AM69 °FPartly cloudy.14 mph84%29.90 "Hg10 mi
4:53 AM69 °FPassing clouds.13 mph90%29.89 "Hg10 mi
3:53 AM71 °FPartly cloudy.14 mph90%29.88 "Hg10 mi
2:53 AM71 °FMostly cloudy.10 mph93%29.91 "Hg10 mi
1:53 AM70 °FOvercast.8 mph97%29.93 "Hg10 mi
12:53 AM69 °FClear.7 mph93%29.93 "Hg10 mi
11:53 PM
Apr 18
69 °FPartly cloudy.6 mph93%29.94 "Hg10 mi
10:53 PM69 °FPassing clouds.6 mph93%29.95 "Hg10 mi
9:53 PM70 °FPassing clouds.No wind90%29.94 "Hg10 mi
8:53 PM69 °FPartly sunny.5 mph93%29.93 "Hg10 mi
7:53 PM69 °FMore clouds than sun.3 mph93%29.92 "Hg10 mi
Weather by CustomWeather, © 2014

See weather overview